Lexington Weather

Lexington, Massachusetts, USA

34°F
4/16/2021 9:51am 
  • Lexington Conditions: Snow, Mist, Overcast
  • Temperature: 33.8°F / 1.0°CColder 2.2°F than last hour.
  • Dew Point: 32.5°FDecreased 2.2°Fsince last hour.
  • Relative Humidity: 95
  • Wind: Calm, 10-min avg: Calm, gust: None
  • Barometer: 29.50 in Steady
  • Visibility: ½ mile
  • Snow Today: 0.3 in
  •   

Regional Weather Roundup
for Boston / Norton, MA

        
000
ASUS41 KBOX 130704
RWRBOX

REGIONAL WEATHER ROUNDUP
NATIONAL WEATHER SERVICE BOSTON/NORTON MA
300 AM EDT TUE APR 13 2021

NOTE:  "FAIR" INDICATES FEW OR NO CLOUDS BELOW 12,000 FEET WITH NO 
SIGNIFICANT WEATHER AND/OR OBSTRUCTIONS TO VISIBILITY.

MAZALL-130800-
EASTERN MASSACHUSETTS
  
CITY           SKY/WX    TMP DP  RH WIND       PRES   REMARKS
BOSTON         CLOUDY    45  33  63 NW8       29.96F                  
BEVERLY        NOT AVBL                                               
LAWRENCE       CLOUDY    41  35  79 CALM      29.98F                  
BEDFORD        CLOUDY    40  35  83 N6        29.96F                  
BLUE HILL        N/A     39  35  86 N10       29.93S                  
NORWOOD        CLOUDY    42  36  79 NW3       29.96F                  
MARSHFIELD     CLOUDY    45  39  81 N10       29.94S                  
PLYMOUTH       CLOUDY    41  38  89 N9        29.93F                  
TAUNTON        CLOUDY    42  38  85 N5        29.94F                  
NEW BEDFORD    CLOUDY    42  37  82 N7        29.93S                  
$$

MAZALL-130800-
CAPE COD AND THE ISLANDS
  
CITY           SKY/WX    TMP DP  RH WIND       PRES   REMARKS
FALMOUTH       MOCLDY    39  37  93 CALM      29.94S                  
HYANNIS        CLOUDY    45  40  82 N10G21    29.89F                  
CHATHAM        CLOUDY    44  38  79 VRB7      29.91F                  
PROVINCETOWN   CLOUDY    44  40  85 N15       29.93                   
NANTUCKET      CLOUDY    44  40  85 N17       29.89F                  
MARTHAS VNYRD  CLOUDY    42  38  85 N14       29.91S                  
$$
 
MAZALL-130800-
CENTRAL AND WESTERN MASSACHUSETTS
  
CITY           SKY/WX    TMP DP  RH WIND       PRES   REMARKS
WORCESTER      CLOUDY    42  31  64 N9        29.95S                  
FITCHBURG      CLOUDY    38  35  89 NW5       29.98S                  
ORANGE         PTCLDY    31  31 100 CALM      29.99S FOG              
SPRINGFIELD    MOCLDY    37  35  92 NE3       29.97S                  
WESTFIELD      MOCLDY    37  35  92 N5        29.98R                  
NORTH ADAMS    PTCLDY    35  32  88 CALM      29.99S                  
PITTSFIELD     MOCLDY    38  35  89 CALM      29.96R                  
$$
 
RIZALL-130800-
RHODE ISLAND
  
CITY           SKY/WX    TMP DP  RH WIND       PRES   REMARKS
PROVIDENCE     CLOUDY    42  37  82 N9        29.95S                  
NEWPORT        CLOUDY    40  36  86 N8        29.93S                  
BLOCK ISLAND   PTCLDY    40  37  89 N8        29.94R                  
SMITHFIELD     CLOUDY    39  38  96 N10       29.95S                  
WESTERLY       PTCLDY    39  35  86 N7        29.94S                  
$$
 
CTZALL-130800-
CONNECTICUT
  
CITY           SKY/WX    TMP DP  RH WIND       PRES   REMARKS
BRADLEY INTL   MOCLDY    41  33  73 N3        29.97S                  
HARTFORD       PTCLDY    43  35  73 N7        29.97S                  
BRIDGEPORT     PTCLDY    45  37  73 N7        29.96R                  
DANBURY        MOCLDY    44  35  70 CALM      29.97S                  
GROTON         PTCLDY    41  36  82 N9        29.94S                  
NEW HAVEN      PTCLDY    43  36  76 N8        29.96S                  
CHESTER        FAIR      41  36  81 N6        29.95S                  
MERIDEN        PTCLDY    42  34  73 N3        29.97S                  
WILLIMANTIC    PTCLDY    39  35  86 N3        29.96S                  
OXFORD         PTCLDY    39  38  96 N7        29.97R                  
$$

MEZ002-015-021-024-NHZ003-005-008-011-012-014-VTZ005-008-130800-
NORTHERN NEW ENGLAND
  
CITY           SKY/WX    TMP DP  RH WIND       PRES   REMARKS
PORTLAND ME    MOCLDY    43  37  79 N7        29.98S                  
BANGOR ME      MOCLDY    46  36  68 N14       29.97S                  
CONCORD NH     CLOUDY    37  33  85 CALM      29.99F                  
MANCHESTER NH  CLOUDY    41  33  73 N6        29.97F                  
NASHUA NH      CLOUDY    38  36  92 NW6       29.99F                  
PORTSMOUTH NH  MOCLDY    40  33  76 N7        29.98F                  
JAFFREY NH     CLOUDY    33  31  92 CALM      29.97F                  
KEENE NH       MOCLDY    31  31 100 CALM      30.00S                  
BURLINGTON VT  CLEAR     45  39  79 CALM      29.99S                  
MT. WASHINGTON FOG       27  27 100 E29         N/A  VSB 1/16WCI  11  
$$

NYZ052-076-130800-
EASTERN NEW YORK
  
CITY           SKY/WX    TMP DP  RH WIND       PRES   REMARKS
ALBANY         MOCLDY    39  38  96 CALM      30.00S                  
NEW YORK CITY  LGT RAIN  46  41  82 NE7       29.96S                  
$$
 
ANZALL-130800-
MARINE OBSERVATIONS
  
STATION/POSITION TIME  TEMP    WIND        PRES    VSBY  WAVE
                       AIR SEA DIR/SP/G                  HT/PER
                 (UTC) (F)     (DEG/KT/KT) (MB)    (MI)  (FT/S)
BOSTON BUOY      0640   43 44  340/ 12/ 16 1014.5F
BUZZARDS BAY     0600          360/ 17/ 18 1013.9F
NANTUCKET SOUND  0640      47                N/A
MASS BAY-STELLWA 0604   44     350/ 10/ 14 1013.1F  1 7/8  4/ 6
ISLE OF SHOALS   0600   43     340/ 11/ 12 1014.5F
S OF BLOCK IS    0626      44                N/A           5/ 7
$$

......................KEY.........................
  SKY/WX - SKY CONDITION/PRESENT WEATHER
  TMP    - TEMPERATURE IN FAHRENHEIT
  DWPT   - DEWPOINT IN FAHRENHEIT
  RH     - RELATIVE HUMIDITY IN PERCENT
  WIND   - DIRECTION AND SPEED IN MPH
  PRES   - MEAN SEA LEVEL PRESSURE IN INCHES OF HG
  WCI    - WIND CHILL INDEX
  VSB    - VISIBILITY IN MILES
  HX     - HEAT INDEX
  TC     - TEMPERATURE IN CELSIUS
  VRB    - VARIABLE WIND DIRECTION
  N/A    - NOT AVAILABLE
  
      

Other recent Regional Weather Roundups

Fri Apr 16, 9:04am

Fri Apr 16, 8:04am

Fri Apr 16, 7:04am

Fri Apr 16, 6:04am

Fri Apr 16, 5:04am

Fri Apr 16, 4:04am

Fri Apr 16, 3:04am

Fri Apr 16, 2:04am

Fri Apr 16, 1:04am

Fri Apr 16, 12:04am

Thu Apr 15, 11:05pm

Thu Apr 15, 10:04pm

Thu Apr 15, 9:04pm

Thu Apr 15, 8:04pm

Thu Apr 15, 7:05pm

Thu Apr 15, 6:04pm

Thu Apr 15, 5:05pm

Thu Apr 15, 4:04pm

Thu Apr 15, 3:05pm

Thu Apr 15, 2:04pm

Thu Apr 15, 1:05pm

Thu Apr 15, 12:04pm

Thu Apr 15, 11:04am

Thu Apr 15, 10:05am

Thu Apr 15, 9:04am

Thu Apr 15, 8:04am

Thu Apr 15, 7:04am

Thu Apr 15, 6:04am

Thu Apr 15, 5:04am

Thu Apr 15, 4:04am

Thu Apr 15, 3:04am

Thu Apr 15, 2:04am

Thu Apr 15, 1:04am

Thu Apr 15, 12:04am

Wed Apr 14, 11:04pm

Wed Apr 14, 10:04pm

Wed Apr 14, 9:04pm

Wed Apr 14, 8:04pm

Wed Apr 14, 7:04pm

Wed Apr 14, 6:04pm

Wed Apr 14, 5:05pm

Wed Apr 14, 4:04pm

Wed Apr 14, 3:05pm

Wed Apr 14, 2:04pm

Wed Apr 14, 1:05pm

Wed Apr 14, 12:04pm

Wed Apr 14, 11:04am

Wed Apr 14, 10:04am

Wed Apr 14, 9:04am

Wed Apr 14, 8:04am

Wed Apr 14, 7:04am

Wed Apr 14, 6:04am

Wed Apr 14, 5:04am

Wed Apr 14, 4:04am

Wed Apr 14, 3:04am

Wed Apr 14, 2:04am

Wed Apr 14, 1:04am

Wed Apr 14, 12:04am

Tue Apr 13, 11:04pm

Tue Apr 13, 10:05pm

Tue Apr 13, 9:05pm

Tue Apr 13, 8:05pm

Tue Apr 13, 7:04pm

Tue Apr 13, 6:04pm

Tue Apr 13, 5:05pm

Tue Apr 13, 4:04pm

Tue Apr 13, 3:04pm

Tue Apr 13, 2:05pm

Tue Apr 13, 1:04pm

Tue Apr 13, 12:05pm

Tue Apr 13, 11:05am

Tue Apr 13, 10:04am

Tue Apr 13, 9:04am

Tue Apr 13, 8:04am

Tue Apr 13, 7:04am

Tue Apr 13, 6:04am

Tue Apr 13, 5:04am

Tue Apr 13, 4:04am

Tue Apr 13, 2:04am

Tue Apr 13, 1:04am

Tue Apr 13, 12:05am

Mon Apr 12, 11:04pm

Mon Apr 12, 10:04pm

Mon Apr 12, 9:04pm

Mon Apr 12, 8:04pm

Mon Apr 12, 7:05pm

Mon Apr 12, 6:04pm

Mon Apr 12, 5:04pm

Mon Apr 12, 4:04pm

Mon Apr 12, 3:05pm

Mon Apr 12, 2:04pm

Mon Apr 12, 1:05pm

Mon Apr 12, 12:04pm

Mon Apr 12, 11:04am

Mon Apr 12, 10:04am

Mon Apr 12, 9:04am

Mon Apr 12, 8:04am

Mon Apr 12, 7:04am

Mon Apr 12, 6:04am

Mon Apr 12, 5:04am

Mon Apr 12, 4:04am

Mon Apr 12, 3:04am

Mon Apr 12, 2:04am

Mon Apr 12, 1:05am

Mon Apr 12, 12:04am

Sun Apr 11, 11:04pm

Sun Apr 11, 10:04pm

Sun Apr 11, 9:04pm

Sun Apr 11, 8:04pm

Sun Apr 11, 7:04pm

Sun Apr 11, 6:05pm

Sun Apr 11, 5:05pm

Sun Apr 11, 4:04pm

Sun Apr 11, 3:05pm

Sun Apr 11, 2:05pm

Sun Apr 11, 1:05pm

Sun Apr 11, 12:04pm

Sun Apr 11, 11:05am

Sun Apr 11, 10:05am

Sun Apr 11, 9:04am

Sun Apr 11, 8:04am

Sun Apr 11, 7:04am

Sun Apr 11, 6:04am

Sun Apr 11, 5:04am

Sun Apr 11, 4:04am

Sun Apr 11, 3:04am

Sun Apr 11, 2:04am

Sun Apr 11, 1:05am

Sun Apr 11, 12:04am

Sat Apr 10, 11:05pm

Sat Apr 10, 10:04pm

Sat Apr 10, 9:04pm

Sat Apr 10, 8:04pm

Sat Apr 10, 7:05pm

Sat Apr 10, 6:04pm

Sat Apr 10, 5:04pm

Sat Apr 10, 4:04pm

Sat Apr 10, 3:04pm

Sat Apr 10, 2:05pm

Sat Apr 10, 1:04pm

Sat Apr 10, 12:04pm

Sat Apr 10, 11:04am

Sat Apr 10, 10:04am

Sat Apr 10, 9:04am

Sat Apr 10, 8:04am

Sat Apr 10, 7:04am

Sat Apr 10, 6:04am

Sat Apr 10, 5:04am

Sat Apr 10, 4:04am

Sat Apr 10, 3:04am

Sat Apr 10, 2:04am

Sat Apr 10, 1:05am

Sat Apr 10, 12:04am

Fri Apr 9, 11:04pm

Fri Apr 9, 10:05pm

Fri Apr 9, 9:04pm

Fri Apr 9, 8:05pm

Fri Apr 9, 7:05pm

Fri Apr 9, 6:04pm

Fri Apr 9, 5:04pm

Fri Apr 9, 4:05pm

Fri Apr 9, 3:05pm

Fri Apr 9, 2:04pm

Fri Apr 9, 1:04pm

Fri Apr 9, 12:04pm

Fri Apr 9, 11:05am

Fri Apr 9, 10:04am

Meta data:

ID: b38911d4-9a3b-420d-8a76-65d92e73ccf2
Link: https://api.weather.gov/products/b38911d4-9a3b-420d-8a76-65d92e73ccf2